VANOK Weather Reports


time (UTC)temp
C
wind
direction
speed
KPH
gust
KPH
rain 1hr
cm
rain 24hr
cm
rain mn
cm
humidity
%
barometer
mb
20260503072711 7 291 24.1 30.6 0.00 0.00 0.00 86 1008.9
20260503070710 7 298 11.3 14.5 0.00 0.00 0.00 83 1008.4
20260503054711 6 325 17.7 20.9 0.00 0.00 0.00 88 1007.8
20260503052710 6 323 19.3 22.5 0.00 0.00 0.00 87 1007.5
20260503050710 7 317 17.7 20.9 0.00 0.00 0.00 81 1007.4
20260503044710 7 323 17.7 20.9 0.00 0.00 0.00 80 1007.0
20260503042710 7 311 19.3 24.1 0.00 0.00 0.00 82 1007.2
20260503040710 7 310 19.3 24.1 0.00 0.00 0.00 81 1006.7
20260503034710 7 306 25.7 29.0 0.00 0.00 0.00 80 1006.8
20260503032710 7 310 20.9 27.4 0.00 0.00 0.00 81 1006.3
20260503030711 7 317 25.7 30.6 0.00 0.00 0.00 83 1006.3
20260503024711 6 309 24.1 27.4 0.00 0.00 0.00 87 1006.2
20260503022710 6 311 25.7 29.0 0.00 0.00 0.00 86 1005.8
20260503020710 6 313 19.3 20.9 0.00 0.00 0.00 84 1005.9
20260503014710 6 295 20.9 24.1 0.00 0.00 0.00 84 1005.9
20260503012710 7 280 20.9 25.7 0.00 0.00 0.00 83 1005.8
20260503010710 7 273 22.5 27.4 0.00 0.00 0.00 82 1005.8
20260503004711 7 275 22.5 29.0 0.00 0.00 0.00 82 1005.8
20260503002710 6 256 19.3 29.0 0.00 0.00 0.00 84 1005.9
20260503000710 7 249 20.9 25.7 0.00 0.00 0.00 82 1005.9
20260502234710 7 241 20.9 27.4 0.00 0.00 0.00 84 1005.9
20260502232710 7 240 19.3 25.7 0.00 0.00 0.00 84 1006.1
20260502230709 7 228 24.1 32.2 0.00 0.00 0.00 82 1006.2
20260502224710 7 223 27.4 37.0 0.00 0.00 0.00 83 1006.3
20260502222710 7 221 27.4 37.0 0.00 0.00 0.00 84 1006.4
20260502220711 7 214 27.4 32.2 0.00 0.00 0.00 84 1006.6
20260502214709 7 222 29.0 37.0 0.00 0.00 0.00 83 1006.9
20260502212709 7 217 24.1 30.6 0.00 0.00 0.00 83 1007.1
20260502210710 7 216 24.1 32.2 0.00 0.00 0.00 83 1007.1
20260502204710 7 213 29.0 33.8 0.00 0.00 0.00 82 1007.3
20260502202709 7 209 27.4 32.2 0.00 0.00 0.00 83 1007.4
20260502200710 7 207 27.4 32.2 0.00 0.00 0.00 82 1007.6
20260502194709 7 206 27.4 35.4 0.00 0.00 0.00 81 1007.8
20260502192709 7 207 29.0 35.4 0.00 0.00 0.00 80 1008.0
20260502190708 7 207 29.0 40.2 0.00 0.00 0.00 78 1008.1
20260502184708 7 204 30.6 38.6 0.00 0.00 0.00 77 1008.2
20260502182709 7 206 25.7 33.8 0.00 0.00 0.00 78 1008.3
20260502180708 7 208 27.4 33.8 0.00 0.00 0.00 78 1008.5
20260502162708 9 222 30.6 38.6 0.00 0.00 0.00 69 1009.5
20260502160708 10 224 32.2 43.5 0.00 0.00 0.00 67 1009.7
20260502150708 10 226 35.4 49.9 0.00 0.00 0.00 65 1010.6
20260502130708 11 235 24.1 38.6 0.00 0.00 0.00 63 1011.6
20260502122707 10 222 29.0 40.2 0.00 0.00 0.00 66 1011.6
20260502120708 10 224 37.0 45.1 0.00 0.00 0.00 66 1011.8
20260502114708 11 236 30.6 46.7 0.00 0.00 0.00 60 1011.8
20260502112707 10 238 32.2 45.1 0.00 0.00 0.00 64 1012.0
20260502110707 10 240 30.6 41.8 0.00 0.00 0.00 64 1011.9
20260502104707 10 239 33.8 46.7 0.00 0.00 0.00 66 1012.0
20260502102707 10 242 38.6 49.9 0.00 0.00 0.00 63 1012.0
20260502100707 10 247 35.4 43.5 0.00 0.00 0.00 61 1011.9
20260502090707 10 237 24.1 35.4 0.00 0.00 0.00 65 1012.2